Location: Mauries
(43.6188°N, 0.3322°W)
Time: 19:15:23
(UTC+00:00)

Okean 1-7 - Pass Details

Date: 14 January 2026
Orbit: 566 x 588 km, 82.5° (Epoch: 10 February)

Event Time Altitude Azimuth Distance (km) Brightness Sun altitude
Rises 06:11:20 0° 358° (N) 2,779 6.2 -14.3°
Reaches altitude 10° 06:13:37 10° 5° (N) 1,879 5.4 -13.9°
Maximum altitude 06:17:33 42° 77° (ENE) 818 4.2 -13.3°
Drops below altitude 10° 06:21:30 10° 150° (SSE) 1,876 6.3 -12.6°
Sets 06:23:46 0° 157° (SSE) 2,773 7.1 -12.2°
